Weather Service Report


826 
FPUS83 KFGF 082331
OPUFGF
PRAIRIE TO PINES WEATHER ROUNDUP
NATIONAL WEATHER SERVICE EASTERN NORTH DAKOTA/GRAND FORKS ND
500 PM CST MON FEB 08 2016

 **SATELLITE DATA USED TO AUGMENT SKY COVER AT AUTOMATED STATIONS**
 *****  WEATHER ACROSS EASTERN NORTH DAKOTA  *****
  
CITY           SKY/WX    TMP DP  RH WIND       PRES   REMARKS
GRAND FORKS    MOCLDY    11   3  70 N30G37    30.25R BLWGSNOWWCI -11  
GRAND FORKS AF DRIZZLE   10   5  79 N20G26    30.25R WCI  -8          
GRAND CITY NWS NOT AVBL                                               
BUXTON           N/A     11   8  89 N22         N/A  WCI  -8          
DEVILS LAKE    CLEAR     17  11  77 N14       30.22R WCI   3          
FARGO          LGT SNOW  14   7  73 N25       30.21R WCI  -5          
WAHPETON ARPT  CLOUDY    12   5  73 N22G29    30.18S WCI  -7          
$$

 *****  WEATHER ACROSS CENTRAL AND WESTERN NORTH DAKOTA  *****
  
CITY           SKY/WX    TMP DP  RH WIND       PRES   REMARKS
JAMESTOWN      CLEAR     24  11  57 N25       30.17R WCI   8          
BISMARCK       CLOUDY    36  18  48 N23G29    30.24R                  
MINOT          CLEAR     29  11  47 NW17      30.25R WCI  17          
MINOT AFB      CLEAR     28  13  54 NW14      30.25R WCI  17          
GARRISON         N/A     30  17  58 NW23G31   30.24R WCI  17          
WILLISTON      CLOUDY    35  19  52 NW9       30.30R                  
DICKINSON      CLOUDY    33  11  39 NW18      30.23S WCI  22          
HETTINGER      CLOUDY    35   9  33 NW17      30.25S WCI  25          
$$

 *****  OTHER OBSERVATIONS NORTHEAST NORTH DAKOTA  *****
  
CITY           SKY/WX    TMP DP  RH WIND       PRES   REMARKS
WALHALLA       FAIR      10   9  92 N17       30.28R WCI  -7          
LANGDON        CLOUDY    12   7  79 N15       30.21R WCI  -4          
CAVALIER       CLOUDY    10   5  79 N17G26    30.27R WCI  -7          
GRAFTON        CLOUDY    10   5  79 N20       30.28R HAZE    WCI  -8  
CANDO          FAIR      19  12  73 N16       30.25R WCI   5          
FORT TOTTEN      N/A     19  11  69 N7        29.95S WCI  10          
ROLLA          FAIR      18   9  68 N21       30.21S WCI   1          
RUGBY          FAIR      23  10  58 N15       30.24R WCI  10          
 ***** THE ABOVE OBSERVATIONS ARE NON NWS ARE NOT QUALITY
        CONTROLLED AND MAY MIS-REPORT RAIN FOR SNOW...
$$

 *****  OTHER OBSERVATIONS SOUTHEAST NORTH DAKOTA *****
  
CITY           SKY/WX    TMP DP  RH WIND       PRES   REMARKS
COOPERSTOWN    NOT AVBL                                               
VALLEY CITY    FLURRIES  18  10  73 N20G25    30.20R WCI   1          
OAKES          FAIR      23  16  74 N24G30    30.16S WCI   7          
GWINNER        FAIR      21  14  73 N18G26    30.18S WCI   6          
SHEYENNE NWR     N/A     16  11  80 N13       29.95S WCI   2          
BUFFALO          N/A     14   7  72 N17         N/A  WCI  -2          
WYNDMERE         N/A     14  10  85 N18         N/A  WCI  -3          
 ***** THE ABOVE OBSERVATIONS ARE NON NWS ARE NOT QUALITY
       CONTROLLED AND MAY MIS-REPORT RAIN FOR SNOW...
$$

  *****  WEATHER ACROSS NORTHERN MINNESOTA  *****     
  
CITY           SKY/WX    TMP DP  RH WIND       PRES   REMARKS
FLAG ISLAND    CLOUDY     7   0  72 N16       30.11R WCI -11          
WARROAD        LGT SNOW   9   1  72 NW14G24   30.13R WCI  -8          
ROSEAU         CLOUDY    10   3  72 NW20      30.14R HAZE    WCI  -8  
HALLOCK        MOCLDY    10   3  72 NW22G29   30.22R WCI  -9          
THF RVR FALLS  NOT AVBL                                               
HALSTAD          N/A     10   7  87 N28         N/A  WCI -12          
FOSSTON        LGT SNOW   9   3  78 NW16      30.12R WCI  -9          
BAUDETTE       LGT SNOW   6  -2  69 NW15G25   30.06R WCI -12          
WASKISH        FLURRIES   7   1  78 NW15G22   30.07R WCI -11          
CROOKSTON      PTCLDY    10   5  79 N26G32    30.21S HAZE    WCI -11  
$$
  *****  WEATHER ACROSS CENTRAL AND WEST MINNESOTA  *****     
  
CITY           SKY/WX    TMP DP  RH WIND       PRES   REMARKS
BEMIDJI        CLOUDY     8   2  77 NW16G23   30.04S WCI -10          
PARK RAPIDS    MIX PCPN  10   1  67 NW22G33   30.03R WCI -10          
WADENA         CLOUDY     9   3  78 NW17G29   30.04S WCI -10          
DETROIT LAKES  LGT SNOW  10   9  92 NW24G32   30.11R WCI -10          
MOORHEAD         N/A     10   7  85 N28       30.19S WCI -11          
FERGUS FALLS   MOCLDY    10   5  79 N23G33    30.17R HAZE    WCI -10  
ELBOW LAKE     CLOUDY    11   4  75 N24G32    30.12R WCI  -9          
MORRIS MN      LGT SNOW  12   9  85 NW35G44   30.10R WCI -10          
STAPLES        CLOUDY    10   3  72 NW21      30.02S WCI  -9          
WHEATON        CLOUDY    16  10  79 N23G30    30.18R WCI  -2          
$$
  *****  WEATHER ELSEWHERE ACROSS MINNESOTA  *****     
  
CITY           SKY/WX    TMP DP  RH WIND       PRES   REMARKS
DULUTH         LGT SNOW   8   0  69 NW15      29.88R BLWGSNOWWCI  -9  
INTRNTL FALLS  LGT SNOW   5  -3  69 NW20      30.02R WCI -15          
ELY            FLURRIES   5   1  85 NW9G20    29.89R WCI  -9          
CLOQUET        FLURRIES   9   1  72 NW18G25   29.91R WCI -10          
BRAINERD       LGT SNOW  11   3  70 NW18      29.99S WCI  -7          
HIBBING        LGT SNOW   6   1  80 NW16      29.94R WCI -12          
ALEXANDRIA     CLOUDY    11   2  67 NW21G33   30.05S WCI  -8          
SAINT CLOUD    CLOUDY    15   5  64 NW18G31   29.98S WCI  -2          
MINNEAPOLIS    FLURRIES  16   6  65 NW18G26   29.97R WCI   0          
$$

  *****  WEATHER ACROSS SOUTH DAKOTA  *****
  
CITY           SKY/WX    TMP DP  RH WIND       PRES   REMARKS
SIOUX FALLS    MOCLDY    25  14  63 N20       30.09S WCI  11          
BROOKINGS      CLOUDY    21  13  71 N24G33    30.07R WCI   4          
WATERTOWN      CLOUDY    21  11  65 N26G32    30.09R WCI   4          
HURON          CLOUDY    31  17  56 N20       30.15S WCI  19          
SISSETON         N/A     18  13  80 N22       30.14S WCI   1          
ABERDEEN       PTCLDY    30  12  47 N17       30.17S WCI  18          
MITCHELL       CLOUDY    33  18  53 NW21G26   30.16S WCI  21          
PIERRE         CLOUDY    37  16  42 N18       30.21F                  
MOBRIDGE       MOCLDY    35  19  52 N17G26    30.18S WCI  25          
RAPID CITY     CLOUDY    43  13  29 N21G33    30.24S                  
$$

  *****  SOME WEATHER IN NEARBY STATES *****
  
CITY           SKY/WX    TMP DP  RH WIND       PRES   REMARKS
GLASGOW MT     CLOUDY    35  25  66 E8        30.28S                  
GREAT FALLS MT CLOUDY    60  26  27 W17       30.33F                  
CHEYENNE WY    SUNNY     42  24  49 NW18G32   30.31F                  
SCOTTSBLUFF NE CLOUDY    41  28  60 NW12      30.29F                  
OMAHA NE       PTCLDY    28  18  66 N23G32    30.10R WCI  14          
DES MOINES IA  FLURRIES  19   9  65 N23G37    30.03R WCI   2          
DAVENPORT IA   CLOUDY    19  11  70 NW21G29   29.87R WCI   3          
CHICAGO IL     CLOUDY    27  19  72 W14       29.72R WCI  16          
EAU CLAIRE WI  LGT SNOW  14   6  70 NW10      29.89R WCI   1          
LA CROSSE WI   FLURRIES  16   6  65 NW17      29.89S WCI   0          
$$

  *****  SOME NATIONAL WEATHER *****
  
CITY           SKY/WX    TMP DP  RH WIND       PRES   REMARKS
LA GUARDIA NY  FLURRIES  32  23  69 NE9       29.77R WCI  24          
RALEIGH NC     RAIN      43  37  81 W13       29.71R FOG              
ATLANTA GA     MOCLDY    47  21  35 NW21G26   29.77R                  
NEW ORLEANS LA PTCLDY    57  13  17 NW24G39   30.03R                  
OKLAHOMA CITY  PTSUNNY   47   6  18 N30G38    30.22R                  
ALBUQUERQUE NM MOSUNNY   57  18  21 N16       30.34S                  
SALT LAKE CITY SUNNY     38  28  67 NW8       30.63F HAZE             
LOS ANGELES CA SUNNY     83  27  13 W12       30.07F                  
BOISE ID       SUNNY     44  34  67 S9        30.65S                  
SEATTLE WA     PTSUNNY   58  43  57 N6        30.37F                  
$$

*** WEATHER ACROSS MANITOBA...SASKATCHEWAN AND ONTARIO ***
                ***ONTARIO***
  
CITY           SKY/WX    TMP DP  RH WIND       PRES   REMARKS
GERALDTON      LGT SNOW   0  -6  78 N12G18    29.81R VSB 1   WCI -18  
THUNDER BAY    LGT SNOW   9   1  72 NW10      29.86R DRFTSNOWWCI  -6  
SIOUX LOOKOUT  FLURRIES   5   0  78 NW15G21   29.96R WCI -13          
TORONTO        FLURRIES  34  28  80 E16G24    29.61S WCI  23          
BIG TROUT LK   CLOUDY    -4 -11  71 N7        30.08R WCI -18          
PICKLE LAKE    MOCLDY     0 -11  60 N7        29.95R WCI -13          
DRYDEN         FLURRIES   3  -2  78 NW12G17   30.00R WCI -13          
KENORA         FLURRIES   1  -4  78 N10G18    30.07R WCI -14          
$$      
                *** MANITOBA***
  
CITY           SKY/WX    TMP DP  RH WIND       PRES   REMARKS
BRANDON        PTCLDY    18   9  68 NW13      30.27R WCI   4          
DAUPHIN        CLEAR     10   3  72 W5        30.30S WCI   2          
ISLAND LAKE    LGT SNOW   1  -2  85 NW5       30.19  WCI  -8          
PILOT MOUND      N/A     10   7  85 N10         N/A  WCI  -3          
THE PAS        CLOUDY     9   1  72 NW10      30.31S WCI  -6          
THOMPSON       PTCLDY    -2  -9  71 NW8       30.28R WCI -17          
WINNIPEG       CLOUDY    10   1  67 N17       30.27R WCI  -7          
LYNN LAKE      CLEAR     -6 -11  77 NW7       30.29S WCI -20          
CHURCHILL      CRYSTALS -15 -20  76 NW16      30.30R DRFTSNOWWCI -39  
GILLAM         CLEAR     -9 -18  64 NW13      30.26R WCI -30          
$$
                ***SASKATCHEWAN***
  
CITY           SKY/WX    TMP DP  RH WIND       PRES   REMARKS
ESTEVAN        MOCLDY    28  19  69 NW13      30.29S WCI  18          
KINDERSLEY     MOCLDY    34  27  75 W7        30.22R                  
LLOYDMINSTER   MOCLDY    32  27  80 W9        30.21R WCI  24          
PRINCE ALBERT  CLOUDY    25  19  80 S5        30.24  WCI  19          
REGINA         MOCLDY    28  19  69 S5        30.26F WCI  23          
YORKTON        CLOUDY    19  12  73 W6        30.28F WCC1F1C2F2C3F3C4F4C5F5C6F6C7F7C8F8C9F9CaFaCbFbCcFcCdFdCe!

Return to Home page


Western Regional Climate Center, wrcc@dri.edu